MST,Max TemperatureF,Mean TemperatureF,Min TemperatureF,Max Dew PointF,MeanDew PointF,Min DewpointF,Max Humidity, Mean Humidity, Min Humidity, Max Sea Level PressureIn, Mean Sea Level PressureIn, Min Sea Level PressureIn, Max VisibilityMiles, Mean VisibilityMiles, Min VisibilityMiles, Max Wind SpeedMPH, Mean Wind SpeedMPH, Max Gust SpeedMPH,PrecipitationIn, CloudCover, Events, WindDirDegrees
2013-12-1,54,40,26,20,10,5,53,24,15,30.18,30.02,29.79,10,10,10,26,9,34,0.00,0,,293
2013-12-2,55,47,39,20,16,14,45,27,20,29.92,29.70,29.49,10,10,10,28,13,48,0.00,0,,311
2013-12-3,55,34,12,21,14,7,86,52,25,29.62,29.51,29.33,10,10,7,31,14,44,0.00,3,Snow,329
2013-12-4,12,2,-9,7,-2,-15,79,71,62,30.30,29.75,29.57,10,6,0,22,16,29,0.00,8,Snow,360
2013-12-5,5,-2,-9,0,-7,-15,85,78,71,30.33,29.94,29.80,10,5,1,16,7,,0.00,8,Snow,165
2013-12-6,5,-6,-18,-2,-10,-24,85,75,62,30.52,30.08,29.93,10,7,2,14,8,,0.00,7,Rain-Snow,148
2013-12-7,5,0,-5,-2,-5,-12,85,78,72,30.37,29.93,29.62,10,7,3,15,8,,0.00,7,Rain-Snow,176
2013-12-8,23,10,-3,11,1,-8,85,80,57,30.16,29.81,29.53,10,9,4,20,7,,0.00,5,Snow,123
2013-12-9,25,10,-5,3,-4,-13,85,57,20,30.32,30.07,29.90,10,8,3,36,10,51,0.03,3,Snow,243
2013-12-10,42,26,10,12,1,-11,69,33,23,30.30,30.05,29.86,10,10,10,33,14,52,0.02,0,,306
2013-12-11,27,19,11,15,10,1,85,71,41,30.55,30.43,30.20,10,10,10,9,6,,0.00,1,,155
2013-12-12,54,36,17,13,5,-4,57,33,11,30.44,30.22,29.90,10,10,10,17,7,30,0.00,0,,23
2013-12-13,48,34,21,16,8,2,64,38,15,30.14,29.94,29.80,10,10,10,22,9,31,0.00,0,,360
2013-12-14,38,26,14,14,11,7,83,59,29,30.41,30.31,30.16,10,10,10,12,7,,0.00,0,,10
2013-12-15,51,36,20,17,11,1,66,32,14,30.35,30.18,30.06,10,10,10,24,9,38,0.00,0,,326
2013-12-16,59,43,27,15,11,5,56,27,11,30.30,30.12,29.99,10,10,10,18,10,32,0.00,0,,14
2013-12-17,54,38,23,17,13,8,66,40,19,30.47,30.29,30.01,10,10,10,13,8,,0.00,0,,62
2013-12-18,62,54,46,10,5,0,23,15,8,30.08,29.83,29.60,10,10,10,24,11,34,0.00,3,,300
2013-12-19,56,40,24,22,18,10,87,53,16,29.76,29.64,29.43,10,10,10,25,9,36,0.00,2,,357
2013-12-20,24,20,14,22,19,12,100,94,80,29.85,29.71,29.60,10,3,0,14,6,,0.00,7,Fog-Snow,163
2013-12-21,34,22,10,29,15,7,98,80,43,29.93,29.67,29.50,10,8,0,21,7,21,0.00,5,Fog,342
2013-12-22,33,20,7,18,10,3,87,65,32,30.23,30.11,29.94,10,10,10,17,5,20,0.00,2,,11
2013-12-23,41,27,13,18,15,9,100,76,36,30.44,30.29,30.11,10,9,3,23,10,39,0.00,4,Snow,112
2013-12-24,53,34,12,23,15,5,81,39,15,30.34,30.10,29.91,10,10,10,25,15,36,0.00,0,Rain,313
2013-12-25,38,23,8,6,3,0,77,48,20,30.52,30.45,30.29,10,10,10,15,8,,0.00,0,,13
2013-12-26,50,35,19,8,5,-2,62,33,16,30.40,30.32,30.23,10,10,10,17,8,,0.00,0,,31
2013-12-27,56,36,17,14,11,8,69,45,17,30.43,30.29,30.06,10,10,10,13,9,,0.00,0,,357
2013-12-28,57,39,21,25,19,12,93,67,18,30.12,30.03,29.83,10,7,2,23,13,37,0.00,5,Rain-Snow,346
2013-12-29,30,20,12,19,15,7,93,78,37,30.32,30.15,29.93,10,10,6,18,11,24,0.00,4,Snow,110
2013-12-30,43,30,17,15,12,9,77,47,28,30.32,30.21,29.99,10,10,10,17,9,18,0.00,0,,12
2013-12-31,54,36,18,18,14,9,75,40,22,30.19,30.04,29.95,10,10,10,21,11,28,0.00,0,,321